Location: Rowland
(34.5359°N, 79.2929°W)
Time: 14:20:58
(UTC+00:00)

Transit 4A - Pass Details

Date: 07 October 2022
Orbit: 871 x 972 km, 66.8° (Epoch: 29 November)

Event Time Altitude Azimuth Distance (km) Brightness Sun altitude
Rises 13:08:05 0° 310° (NW) 3,464 10.3 21.3°
Reaches altitude 10° 13:11:53 10° 286° (WNW) 2,518 9.7 22.1°
Maximum altitude 13:14:37 14° 257° (WSW) 2,261 9.6 22.6°
Drops below altitude 10° 13:17:23 10° 228° (SW) 2,516 10.0 23.1°
Sets 13:21:11 0° 204° (SSW) 3,458 10.9 23.8°
